User: anonymous   Login
Location: Champseau
(45.8333°N, 1.7667°E)
Time: 10:58:46
(UTC+00:00)
Language:

YUBILEINY - Orbit

View from above orbital plane
View from above orbital plane
View from above satellite
View from above satellite

Ground track
Ground track

The orbit data is extracted from the following two-line orbital elements,

1 32953U 08025A   21339.97860952  .00000021  00000-0  80971-4 0  9993
2 32953  82.5016 304.2490 0019151 326.4075  33.5789 12.43106169614292
Epoch (UTC): 05 December 2021 23:29:11
Eccentricity: 0.0019151
inclination: 82.5016°
perigee height: 1478 km
apogee height: 1508 km
right ascension of ascending node: 304.2490°
argument of perigee: 326.4075°
revolutions per day: 12.43106169
mean anomaly at epoch: 33.5789°
orbit number at epoch: 61429

The dashed part of the orbit path shows where the satellite is in the earth's shadow,  

DLR